Starlink 5577

operational
NORAD ID: 55751 Int'l Des: 2023-028 Owner: SPXS Country: US Constellation: starlink
LEOCIRCULAR

About Starlink 5577

Description loading...

Live Position

Loading 3D Globe...

Upcoming Passes

Altitude History

Altitude vs Time

uPlot chart will show altitude changes over time

Two-Line Element Set

1 55751U 23028L 25259.88502433 .00000999 00000-0 91486-4 0 9993
2 55751 69.9990 322.7728 0003151 269.6986 90.3812 14.98323234140001
Epoch: Sep 16, 2025 • Age: 28 hours

Current Status

Altitude 595.0 km
Velocity 7.56 km/s
Sub-Earth Point -68.15°S, 127.8°W
Launch Date Mar 3, 2023
Age 2.5 years
Type internet

Technical Details

Classification Payload
Mass 305.00 kg
Dry Mass 290.00 kg
Total Mass 305.00 kg
Length 0.20 m
Diameter 2.80 m
Span 9.00 m
Shape Box + pan
Manufacturer SPXS
Bus Type Starlink
Phase Status In Orbit
Owner/State SPXS/US

Large Constellations

Loading constellations...